EWS-G3 (GOES 14)

Last updated on Mon Sep 21 2026 00:02:40 GMT+0000 (Coordinated Universal Time)

1 35491U 09033A 26263.57813507 -.00000084 00000+0 00000+0 0 9993 2 35491 1.9289 81.6875 0002196 92.3845 112.5227 1.00071005 7547
UTC large
Height (km)
Speed (km/s)
/
Latitude / Longitude
Inclination (degrees)
Orbital Period (minutes)
Azimuth
Elevation
Range (km)
Doppler Factor

Next 0 passes for location: London (51.5072 / 0.1276)

No passes found over London.
EWS-G3 (GOES 14)